GFSGL_sfc_thetae_099.txt.gz
Theta_e
316 316 319 318 318 317 318 318 318 317 317 316 316 317 315 315 316 315 314 315 314 313 316 318 316 315 314 318 319 318 316 317 313 315 318 320 317 315 315 317 315 314 314
317 317 318 318 317 316 316 316 318 318 315 317 316 315 315 315 317 317 314 314 314 313 313 313 312 312 313 315 316 315 316 316 314 314 318 319 318 319 321 317 315 316 316
318 317 317 317 316 316 315 315 316 317 318 317 317 314 313 314 315 316 315 315 314 313 313 312 312 313 312 312 313 312 314 315 316 316 316 318 318 318 317 315 315 315 315
317 316 316 317 316 316 316 315 314 315 316 316 317 317 318 316 314 314 314 314 315 316 318 317 314 312 312 312 314 312 312 312 314 316 316 316 318 321 319 317 317 319 317
316 316 316 317 317 316 316 316 315 314 315 316 316 316 317 317 316 316 314 313 313 314 318 318 319 316 307 310 313 312 312 312 314 314 314 316 316 317 316 318 316 318 320
317 316 317 316 316 315 315 317 315 315 314 314 314 314 315 314 302 300 310 316 315 315 315 316 317 307 307 300 300 301 310 314 314 312 312 311 312 314 316 314 314 312 309
300 301 303 306 308 310 315 315 314 315 315 314 314 314 314 315 298 298 298 315 316 316 316 316 315 315 308 315 302 297 297 297 299 313 311 311 311 313 316 313 313 312 312
294 294 296 298 299 300 302 302 303 307 314 313 313 313 313 301 291 294 295 307 310 311 312 313 314 315 315 313 313 313 311 309 304 303 307 310 308 295 297 303 306 309 302
290 290 291 293 293 294 295 295 297 301 300 294 293 296 299 290 289 289 293 303 306 307 309 308 299 302 296 293 303 305 304 303 288 290 287 286 286 285 286 292 295 297 295
288 289 289 291 290 291 292 293 295 295 292 291 288 287 287 287 288 289 291 298 301 300 288 287 286 288 288 289 295 296 298 297 285 284 283 282 282 282 281 282 284 287 288
288 288 288 288 288 289 290 290 292 290 289 287 285 284 284 285 286 287 289 293 291 286 284 283 284 285 286 286 286 288 289 285 284 282 280 279 279 278 278 278 277 277 278
287 286 286 286 286 287 287 288 288 288 286 285 284 283 284 284 285 285 285 284 284 282 281 281 282 283 282 283 282 282 282 280 279 277 276 275 276 277 277 276 276 276 277
285 284 284 284 284 285 284 284 285 285 284 284 283 283 283 284 284 283 283 282 282 282 281 280 280 280 280 280 280 280 279 278 276 275 275 274 276 277 279 278 278 277 276
284 283 283 282 282 283 283 283 283 283 283 283 282 282 282 283 283 283 283 283 282 281 280 280 280 279 278 279 280 280 279 279 278 277 276 277 278 278 277 278 277 277 275
283 283 282 282 281 280 280 282 282 282 283 282 281 282 281 280 281 282 282 282 281 279 280 280 279 279 278 278 277 277 278 279 278 278 277 276 276 276 275 276 276 275 274
283 282 282 282 281 280 279 278 280 281 281 282 281 281 281 281 281 280 280 279 278 278 278 277 276 276 275 275 275 275 275 275 276 276 275 275 274 274 274 274 274 273 272
280 281 281 280 279 278 278 277 275 276 278 279 280 280 280 279 279 279 278 277 277 278 276 275 274 275 274 274 274 273 272 272 273 273 273 273 273 272 273 272 272 272 271
277 276 277 277 277 276 276 275 275 275 273 273 274 277 278 278 277 277 277 277 276 275 275 274 273 274 273 272 272 271 271 271 271 271 270 271 271 271 271 270 270 270 270
278 277 277 276 276 275 275 275 274 273 272 272 273 273 272 274 274 273 274 274 273 272 272 272 272 272 271 271 270 270 268 267 268 269 269 268 269 269 268 269 268 266 268
275 274 275 276 275 274 274 273 272 271 270 270 269 269 272 272 271 269 270 271 270 270 271 270 270 270 270 269 269 268 268 268 268 267 267 267 268 268 267 267 267 268 267
275 274 273 274 274 273 272 271 271 270 269 268 267 267 267 269 268 268 267 267 268 268 268 268 268 268 268 267 267 266 265 265 266 266 266 266 266 266 267 267 267 267 266
274 274 273 272 272 272 271 270 269 269 268 267 267 266 265 267 267 266 266 265 266 267 267 267 266 266 265 265 265 265 264 263 264 264 264 264 265 265 266 266 266 266 266
272 272 271 271 270 269 269 269 268 267 266 266 266 265 265 265 265 264 264 264 265 265 266 266 265 264 264 264 264 264 263 262 262 262 263 264 265 266 266 265 264 265 264
270 270 269 269 268 268 268 267 266 265 265 265 265 264 264 263 263 263 263 263 264 264 264 263 263 262 262 263 263 263 262 262 262 261 260 263 264 264 265 265 265 263 264
268 268 267 267 267 266 266 265 265 265 264 264 263 263 263 263 262 262 262 262 262 262 262 262 262 262 260 260 260 260 259 258 259 257 262 261 260 260 262 264 262 264 262
267 266 266 266 265 265 265 264 264 263 263 262 262 262 262 261 261 262 261 261 261 261 261 261 261 260 259 261 260 259 258 258 259 255 260 263 262 263 263 262 258 263 263

GFSGL_sfc_thetae_102.txt.gz
Theta_e
320 321 325 327 327 326 325 324 323 324 322 321 321 322 318 317 316 316 315 315 314 314 314 313 313 314 314 316 316 316 314 314 309 313 316 320 322 324 321 323 321 321 322
319 320 324 326 325 324 324 324 323 321 322 320 320 321 319 319 319 318 316 316 314 313 314 314 313 316 316 318 317 315 315 319 316 313 313 316 322 323 324 324 321 319 319
318 319 321 322 324 323 323 324 323 321 320 320 321 320 318 319 320 319 318 318 317 316 316 315 316 317 315 315 314 314 315 317 318 313 314 320 321 321 322 323 323 324 319
319 320 319 320 322 322 322 322 322 321 319 320 319 321 320 320 319 319 319 317 319 319 319 318 315 314 314 314 314 315 312 312 313 313 313 314 316 320 321 319 319 323 321
318 318 318 319 320 319 319 319 321 321 320 320 320 321 321 320 319 319 318 318 318 317 318 318 318 315 307 312 317 317 313 312 312 314 312 311 311 313 316 320 319 321 323
306 308 317 318 317 317 319 318 318 319 319 319 319 319 320 319 305 302 312 319 318 318 319 319 319 309 310 300 301 302 313 316 315 313 310 310 313 317 320 319 319 318 315
298 299 300 304 306 308 314 316 318 319 319 318 318 319 318 313 291 295 298 319 320 319 319 319 318 319 312 320 303 297 298 297 299 317 317 317 316 317 314 317 317 316 315
292 294 295 297 298 299 300 301 303 306 303 307 305 313 299 292 289 290 291 304 310 314 316 311 309 312 306 304 314 314 312 311 306 306 307 305 294 290 292 297 297 298 300
290 291 292 293 294 294 294 296 298 297 293 291 291 293 291 289 288 289 292 303 305 307 293 289 291 294 289 290 299 303 302 290 288 288 287 285 284 284 284 291 293 293 294
289 289 291 291 292 292 293 294 293 291 289 288 286 287 286 286 287 288 294 299 299 289 286 285 285 287 286 287 293 294 294 289 284 283 281 281 280 280 280 281 282 286 288
289 289 289 291 290 291 292 292 291 289 287 286 284 285 285 285 285 286 288 290 286 283 282 282 283 284 284 284 285 285 286 284 282 281 280 280 279 278 279 279 279 280 279
288 288 288 288 289 290 290 290 291 289 287 286 285 284 285 285 284 285 285 284 284 282 280 281 282 282 282 282 282 281 281 281 280 278 278 277 277 277 278 278 279 279 280
286 287 287 287 287 287 288 289 288 290 289 287 287 286 286 286 286 283 283 283 283 283 283 282 282 282 282 282 282 281 282 281 280 278 277 277 279 281 282 281 282 281 279
286 285 284 283 284 286 286 285 285 286 286 285 285 284 285 285 285 286 286 285 283 283 283 283 282 282 281 283 283 283 284 284 283 281 281 281 282 282 281 282 281 281 280
285 285 284 283 283 281 281 282 282 283 284 283 283 284 283 282 281 282 283 283 283 283 284 285 284 283 282 282 281 281 282 282 281 281 281 281 281 280 279 281 280 280 277
284 284 284 284 284 284 282 279 280 281 281 282 282 282 282 281 281 280 280 281 282 283 284 282 281 281 280 280 280 279 280 279 280 280 280 279 278 278 278 278 278 277 276
282 283 283 283 283 282 282 281 278 278 278 279 280 280 280 279 280 280 280 280 281 283 281 280 279 279 279 279 279 278 277 277 277 278 278 277 277 276 277 276 277 276 275
281 280 281 281 281 281 280 280 280 279 277 276 276 277 277 277 278 279 280 282 280 280 279 278 277 277 277 276 276 276 276 276 275 276 276 275 276 276 275 274 274 274 274
281 280 280 280 280 280 280 279 279 278 278 277 278 277 277 276 276 277 278 278 277 276 276 276 276 276 276 275 275 274 274 273 274 274 274 273 274 274 273 273 272 270 272
279 278 279 279 279 279 279 278 278 277 276 275 274 274 277 278 276 275 276 276 275 275 275 274 274 274 274 274 274 274 274 273 273 273 272 273 273 273 272 272 272 273 271
279 279 278 279 278 278 278 277 276 276 275 273 271 271 271 275 274 273 273 273 273 273 273 273 273 273 273 272 272 272 271 272 271 271 272 272 271 272 272 272 272 272 270
278 278 278 277 277 277 276 276 275 275 274 273 272 271 270 273 272 271 271 271 271 272 272 272 271 271 270 270 270 271 269 269 269 270 270 269 271 271 271 271 271 271 270
277 277 276 276 275 274 274 274 274 273 272 272 272 271 271 271 270 270 269 270 270 270 270 270 269 268 269 269 269 269 268 267 267 267 268 269 270 271 271 270 269 269 268
275 275 274 274 274 274 273 272 270 269 271 271 271 270 269 269 269 268 268 268 268 268 268 267 266 265 266 267 268 268 266 265 266 267 265 267 268 268 269 269 269 267 268
274 273 273 273 272 272 272 271 271 270 270 270 270 269 269 268 268 268 267 267 266 267 266 266 265 265 264 263 263 263 261 261 262 260 266 266 265 265 266 267 266 268 267
272 271 272 272 271 271 271 270 270 269 269 268 268 268 268 267 267 267 266 265 265 265 264 265 264 263 263 263 263 262 260 260 261 260 262 266 266 267 267 266 265 267 267

GFSGL_sfc_thetae_105.txt.gz
Theta_e
323 324 327 329 331 331 328 327 326 324 324 323 324 322 320 319 320 321 321 319 317 316 316 316 316 316 315 315 316 315 314 313 309 312 314 316 320 321 322 326 325 326 325
321 322 326 329 329 328 326 326 325 322 323 323 324 321 322 320 319 318 315 315 315 313 314 314 314 314 314 315 314 313 313 313 310 308 312 313 315 322 319 320 323 322 325
320 322 325 326 326 326 326 325 323 322 322 322 323 321 320 321 320 318 317 316 316 317 317 315 314 313 312 315 316 316 316 315 317 313 312 317 318 321 319 320 321 320 322
320 321 321 323 324 326 325 323 321 322 320 320 321 321 320 319 320 320 319 319 319 319 320 318 317 316 316 317 318 318 318 317 313 312 312 316 318 321 319 317 318 322 322
318 319 319 322 323 325 323 321 321 321 320 320 320 321 321 320 319 320 320 318 319 318 319 318 319 316 307 312 318 319 318 317 314 314 313 311 311 313 316 317 313 317 320
303 303 315 319 320 320 319 319 320 320 320 320 319 320 321 320 292 299 310 320 319 319 318 319 320 308 307 299 300 300 308 319 316 313 313 312 313 315 318 316 316 315 313
295 297 300 304 305 306 315 317 317 318 320 319 319 319 307 297 290 291 293 317 319 319 319 317 318 319 309 317 303 297 298 298 295 314 313 313 312 307 300 304 307 306 305
292 293 295 297 298 299 301 302 302 301 299 300 299 299 295 290 289 290 289 310 312 309 297 296 299 300 291 295 302 307 301 293 293 299 298 291 287 287 291 295 296 297 298
288 289 292 293 293 294 293 294 295 292 290 290 290 290 289 288 288 289 293 303 302 291 288 288 290 289 287 289 297 299 289 285 286 286 285 284 284 284 284 291 287 288 289
286 288 291 292 292 292 292 290 289 288 287 287 286 286 286 285 287 288 295 300 288 285 284 284 285 285 285 287 292 293 291 284 282 282 281 281 281 281 281 281 282 286 285
288 288 290 291 291 291 291 290 288 286 285 285 284 284 284 285 285 286 287 286 285 283 282 282 283 284 284 284 284 284 283 283 281 280 280 281 279 279 279 280 280 281 280
287 288 288 289 290 291 291 291 291 290 288 287 286 285 285 285 284 285 285 284 284 282 281 282 283 284 283 283 283 282 282 282 281 280 279 279 278 279 280 280 280 281 281
286 286 286 286 288 287 287 288 289 289 288 287 287 286 286 287 285 283 283 283 284 283 283 283 284 284 284 283 284 284 284 284 283 281 280 281 282 283 284 284 283 282 281
286 285 285 282 282 283 284 283 282 285 286 286 285 284 284 284 285 286 286 285 284 284 284 284 283 283 283 284 284 284 284 284 284 282 282 282 284 283 282 284 283 283 282
287 286 285 284 282 280 279 280 281 281 282 283 281 282 282 280 280 282 284 284 285 285 285 285 284 284 283 282 282 283 283 283 282 283 282 282 282 282 281 282 282 281 279
285 284 284 285 285 283 281 279 280 281 281 281 282 281 281 281 281 282 283 283 284 284 284 282 281 282 281 281 280 280 280 280 281 281 281 280 279 279 279 280 280 279 277
282 283 284 284 284 283 283 281 278 278 279 279 279 280 280 280 281 282 282 282 283 283 281 280 280 280 280 280 279 279 277 278 279 279 279 279 279 278 278 278 278 277 276
282 281 282 282 282 282 282 281 282 280 278 277 277 278 279 279 280 281 282 282 280 280 279 278 278 278 278 277 277 277 277 277 277 277 277 277 277 277 276 275 275 275 275
281 282 282 281 281 281 281 281 281 280 279 279 279 279 279 279 279 279 280 279 278 277 278 277 278 277 277 277 277 276 275 274 275 276 276 275 276 275 274 275 275 272 273
280 280 281 281 281 281 281 280 280 279 277 276 275 276 279 279 277 276 277 277 277 277 277 276 276 276 276 276 275 276 275 275 275 275 274 274 275 275 274 274 273 273 273
281 280 280 280 279 279 279 278 278 277 276 274 273 274 275 276 275 275 275 275 275 275 275 275 274 274 274 274 274 273 273 273 272 273 272 273 273 273 273 273 273 273 272
280 280 279 279 278 278 278 277 277 277 276 275 274 273 274 275 274 274 273 273 273 274 274 273 273 272 271 272 272 272 271 270 270 271 271 271 272 272 273 272 272 272 272
279 278 278 277 277 277 276 276 275 275 274 274 274 273 273 273 273 272 271 272 272 271 271 271 270 270 271 271 271 270 269 268 269 267 268 270 271 270 271 271 270 270 270
277 277 276 275 275 275 275 274 273 272 274 274 273 272 272 272 271 270 270 270 270 270 270 269 268 266 266 268 268 268 265 264 267 268 267 268 269 269 270 270 270 269 269
276 276 275 275 274 274 274 274 273 273 273 272 272 271 271 271 270 270 269 268 268 268 268 268 266 267 266 265 264 264 262 261 263 261 266 268 268 266 268 267 268 268 269
273 273 273 273 273 273 273 272 272 271 271 271 271 270 270 269 269 269 268 267 266 267 266 267 266 265 265 267 263 262 261 261 261 260 262 266 267 267 267 267 267 267 267

GFSGL_sfc_thetae_108.txt.gz
Theta_e
330 330 331 330 330 330 328 327 326 323 322 321 322 322 323 322 322 319 318 317 316 317 317 318 317 317 316 316 316 315 313 312 308 310 313 313 315 317 320 319 320 321 320
327 326 327 327 328 327 326 326 323 321 322 322 322 321 321 321 321 319 318 317 316 316 317 316 316 317 316 316 315 314 314 314 311 309 311 311 311 313 317 318 318 319 321
322 322 323 325 326 325 324 325 322 321 321 321 321 321 320 320 319 318 318 317 317 316 315 315 315 315 314 314 315 314 314 314 312 310 310 312 313 314 314 316 315 316 319
320 320 321 322 324 324 324 322 321 321 320 320 320 321 320 320 319 319 317 316 315 316 316 316 315 314 313 313 313 313 313 312 312 311 311 311 312 313 315 313 311 314 316
309 316 319 321 322 323 322 320 320 320 320 319 319 319 318 318 314 318 318 317 316 316 317 317 316 313 307 310 314 314 315 313 312 311 310 309 309 310 309 312 311 313 314
296 297 302 312 317 319 319 319 319 318 318 318 318 319 317 301 291 293 305 317 316 316 315 315 316 307 307 300 301 301 311 314 313 311 309 308 309 311 311 310 310 310 305
292 294 295 298 301 305 313 314 313 312 317 314 314 302 296 294 290 292 292 315 314 309 305 307 312 304 300 310 299 296 296 292 290 305 307 309 306 299 300 302 304 303 302
290 291 292 294 294 295 298 297 296 296 296 296 296 296 292 290 289 290 290 309 298 294 292 295 297 294 290 294 303 295 289 287 290 292 290 286 285 286 289 294 295 295 293
287 288 290 291 291 290 290 290 290 289 288 287 288 288 287 287 288 290 296 298 291 287 287 287 289 287 287 290 298 291 285 283 286 286 285 285 284 284 285 291 287 287 287
285 286 288 290 289 288 286 286 288 288 287 286 285 285 286 285 287 289 293 290 285 284 284 284 285 285 286 287 292 289 284 282 282 282 281 281 282 281 282 282 283 285 284
287 286 286 287 288 289 287 287 288 286 286 285 284 284 284 285 285 287 288 286 284 283 282 282 284 285 285 285 285 284 282 282 281 280 280 280 280 280 280 280 280 281 280
286 285 284 285 286 285 286 288 288 287 285 285 285 284 283 283 284 285 285 285 284 282 281 283 283 285 284 283 283 283 283 282 281 280 280 279 279 280 281 281 280 278 278
285 283 283 282 282 284 283 283 284 286 286 284 283 283 283 284 283 284 284 284 284 282 283 284 284 284 284 283 284 284 284 283 282 280 279 280 280 282 283 281 276 274 274
286 285 283 281 279 280 281 281 280 281 282 281 282 280 280 281 282 284 284 284 284 283 282 283 282 282 283 282 282 283 283 282 281 280 280 281 281 281 277 278 278 278 275
285 285 285 282 280 279 279 279 279 280 281 279 279 279 278 279 281 283 283 283 283 283 284 283 282 281 280 280 280 280 281 281 280 280 280 280 277 275 275 276 276 276 273
283 283 283 284 283 280 278 277 280 280 281 281 281 280 281 282 283 284 284 284 284 284 281 279 279 279 278 278 276 275 276 275 277 276 275 275 275 275 276 277 277 275 273
281 282 282 282 282 282 281 278 275 277 279 280 281 281 282 282 283 283 282 282 283 281 278 277 277 277 276 276 276 275 273 274 276 275 275 274 275 275 274 275 274 274 273
282 281 281 282 281 281 281 281 280 277 275 275 279 279 280 281 281 282 282 281 277 278 277 275 274 274 274 274 274 273 273 274 273 273 272 271 270 272 271 271 271 268 271
280 281 282 281 281 281 280 280 279 278 277 276 277 278 279 279 279 280 280 276 274 274 274 274 274 274 274 274 273 270 268 268 268 269 269 269 267 270 268 270 270 267 268
280 279 280 281 280 280 280 279 278 276 274 273 273 273 277 276 274 273 274 274 273 273 273 273 273 272 272 271 269 270 269 268 268 269 265 265 268 267 266 266 265 265 268
280 280 279 279 279 279 278 278 277 275 273 272 271 272 274 273 272 272 271 271 271 271 271 270 270 269 270 271 270 268 268 267 268 267 265 266 264 264 267 266 266 268 268
279 279 278 277 277 277 277 277 276 275 274 272 272 271 271 272 271 270 270 269 269 270 270 270 269 268 268 268 268 267 264 263 262 264 266 265 267 266 267 267 264 264 266
277 277 276 276 277 275 274 274 275 274 273 273 272 271 271 270 270 269 269 269 268 266 266 266 265 266 267 268 266 264 262 262 264 260 260 263 266 262 264 263 263 262 261
276 275 275 275 273 274 274 273 271 269 271 272 270 269 269 269 267 266 265 267 265 264 266 266 263 262 262 262 264 262 261 259 261 260 260 262 262 263 261 262 263 260 263
274 273 273 273 273 273 273 272 271 271 271 270 270 269 269 268 268 267 266 263 264 265 264 263 261 262 260 260 260 259 257 257 255 256 258 260 261 260 263 261 262 261 260
271 271 271 271 271 271 271 270 270 269 268 269 268 267 267 266 267 266 265 263 263 263 263 264 262 261 262 261 260 258 257 256 254 255 255 260 262 262 259 257 259 260 261

GFSGL_sfc_thetae_111.txt.gz
Theta_e
322 327 328 328 327 326 327 325 324 322 320 320 320 322 322 322 321 320 319 319 318 318 319 319 318 318 317 316 315 314 313 311 307 309 313 316 314 317 319 319 318 317 317
320 320 322 324 325 325 324 323 322 319 320 318 318 319 322 322 321 319 317 317 317 316 317 317 317 318 317 317 316 315 316 315 312 310 311 312 312 313 315 316 318 320 319
314 318 319 320 323 323 323 321 320 320 319 318 319 320 320 321 320 319 318 317 317 316 316 316 317 316 315 316 315 315 315 315 314 313 311 313 313 312 311 313 314 316 317
302 306 313 320 322 323 322 320 320 320 319 319 321 320 319 319 319 319 318 317 317 317 317 317 316 315 315 315 315 315 314 313 312 312 311 310 311 313 313 312 310 313 313
296 298 299 303 320 320 320 320 320 320 319 319 319 318 319 318 314 318 317 316 315 315 315 316 316 313 307 310 314 314 313 312 311 310 309 310 310 309 307 309 310 311 311
293 294 296 297 300 311 318 319 318 318 318 317 317 316 304 300 292 293 310 316 316 315 314 315 316 306 305 300 300 303 309 312 311 310 310 309 309 309 311 310 309 307 305
290 292 293 293 294 296 298 307 310 314 312 310 305 301 296 294 290 292 293 316 313 307 307 311 311 302 302 310 298 292 290 290 289 307 309 306 305 296 299 303 304 304 302
288 289 291 291 292 292 292 290 291 292 294 293 292 292 290 290 289 291 294 300 295 293 293 295 296 294 290 298 298 291 287 287 288 290 289 286 286 287 290 294 295 295 288
285 287 288 289 290 290 289 288 288 287 287 287 287 287 287 287 289 291 295 292 288 286 287 288 288 289 288 292 292 286 284 283 286 286 286 285 285 285 286 291 287 288 286
284 285 287 287 287 287 287 286 287 286 285 285 285 285 286 286 288 289 290 288 284 284 284 285 286 286 287 289 291 286 282 282 282 281 281 281 282 283 282 282 284 286 285
285 284 284 285 285 285 287 286 286 286 285 285 283 283 284 284 285 287 287 285 284 283 283 283 284 285 286 286 286 285 283 282 281 281 280 281 281 281 280 281 281 282 280
284 282 282 282 283 283 284 285 285 285 285 284 283 283 283 283 285 285 286 285 285 283 282 283 284 285 285 284 283 283 283 282 282 281 281 280 280 279 278 277 276 277 276
284 282 281 280 281 282 281 281 282 283 283 281 281 281 282 284 283 284 284 284 284 283 283 284 284 284 284 283 284 284 283 282 281 279 279 279 280 278 275 274 275 275 274
285 282 280 279 279 279 280 280 280 280 279 280 279 279 280 282 282 284 283 283 283 282 282 282 281 281 281 281 282 282 282 281 279 279 279 277 274 274 273 273 273 273 273
283 283 282 280 278 278 279 279 279 280 280 279 279 279 280 280 283 284 284 283 283 282 282 281 280 278 277 277 277 277 278 279 277 277 276 274 274 276 275 275 275 274 272
281 281 282 282 279 278 277 277 281 281 282 282 283 281 282 283 284 284 283 283 283 282 279 277 277 276 275 274 274 274 275 275 275 275 274 275 274 275 275 275 275 273 272
279 280 280 281 281 281 277 276 273 277 280 281 281 282 283 283 283 282 282 282 281 279 275 274 274 273 273 274 274 274 273 274 275 274 273 273 274 273 272 272 272 273 272
278 279 277 277 278 278 278 278 276 274 273 274 279 280 281 281 281 281 280 278 275 275 275 274 273 273 273 273 273 272 272 273 272 272 271 270 270 271 271 270 270 267 270
277 277 278 278 278 277 277 276 275 274 272 272 273 276 277 278 278 278 277 273 272 272 272 272 272 272 272 272 270 270 269 269 268 267 268 269 265 269 267 268 268 265 267
277 277 277 276 275 276 276 274 273 272 271 270 271 272 273 272 270 270 271 271 270 270 270 269 270 269 269 269 268 267 267 267 267 267 264 263 262 265 264 264 263 262 267
276 272 272 273 275 274 274 274 269 270 269 268 270 271 271 270 269 269 269 268 268 268 267 267 266 266 267 267 267 265 264 262 263 263 264 265 259 261 263 264 265 267 266
273 272 272 272 270 271 272 273 271 270 268 268 270 270 268 268 268 267 266 264 264 266 266 265 265 265 265 264 263 261 260 259 260 259 260 263 263 263 264 262 260 261 263
270 271 269 270 271 267 266 269 270 268 267 267 267 266 266 264 265 266 265 259 262 261 261 261 260 262 263 260 260 259 257 257 258 254 255 258 260 259 258 259 262 259 259
270 270 271 271 269 267 268 265 264 265 266 263 261 261 261 260 259 258 260 258 258 257 257 257 259 259 260 256 256 257 258 254 256 255 253 255 258 260 257 258 258 256 258
266 266 267 269 268 269 268 265 263 262 262 263 264 264 266 264 263 258 256 256 259 258 256 256 255 259 257 255 256 256 255 254 252 253 253 256 258 259 259 258 256 257 255
266 264 264 264 264 264 266 266 265 264 264 265 264 261 261 263 262 260 256 258 260 258 260 256 258 260 258 257 256 255 253 253 252 252 251 255 253 255 253 254 255 254 257

GFSGL_sfc_thetae_114.txt.gz
Theta_e
303 314 323 327 328 326 325 325 324 322 322 322 323 323 322 320 320 319 319 318 319 318 318 318 317 318 317 317 316 316 313 310 310 311 314 316 315 317 318 316 317 316 314
300 306 320 322 322 325 324 324 323 322 323 322 322 322 322 321 320 319 318 318 318 317 318 317 317 317 317 317 316 314 313 312 310 309 310 312 314 314 315 317 318 319 318
298 301 306 308 321 321 322 322 322 321 321 320 320 321 321 321 320 320 319 318 318 318 318 318 318 317 316 317 317 316 316 316 314 312 311 312 313 313 313 313 313 316 317
295 296 297 301 305 321 319 320 320 320 319 319 319 319 321 321 321 320 319 318 317 317 317 317 317 317 316 316 315 316 315 315 314 314 313 311 312 313 313 311 311 312 312
292 293 294 297 298 302 318 318 320 320 319 320 319 318 319 319 316 319 319 317 317 316 316 317 317 314 307 311 315 314 313 313 312 311 310 309 309 309 309 311 311 310 307
290 291 293 294 295 295 298 312 318 319 318 318 318 317 309 302 292 293 309 316 316 315 314 315 316 305 305 299 301 301 307 312 311 310 310 308 309 310 308 308 309 306 304
289 289 290 291 292 292 293 293 295 298 306 304 303 302 297 294 290 293 292 316 315 314 312 313 312 305 304 310 292 291 290 289 288 308 310 310 309 305 304 306 306 304 302
285 287 288 289 290 291 291 289 288 289 290 291 290 291 291 291 289 291 293 301 296 293 293 295 299 297 293 301 300 291 288 287 288 290 290 288 287 289 293 297 298 290 287
283 284 285 287 287 288 287 287 287 287 286 285 286 286 287 287 289 291 294 291 288 286 287 288 289 290 288 293 293 287 284 283 286 287 286 286 286 286 288 292 289 289 285
282 282 283 285 285 285 286 286 286 286 285 285 284 285 285 285 288 289 289 288 285 284 284 285 286 287 288 289 289 287 283 281 282 282 282 282 283 283 283 283 285 287 284
283 282 282 282 283 283 285 285 285 285 285 285 284 284 284 285 285 287 287 285 284 283 283 283 284 286 287 287 286 285 282 282 282 282 281 281 280 280 280 281 281 284 281
283 281 280 281 282 282 282 283 283 284 282 282 283 283 283 284 285 285 286 285 285 283 282 283 284 285 285 284 283 284 283 283 282 281 281 279 277 277 277 277 278 278 278
281 279 279 280 280 280 280 280 280 281 281 280 281 281 281 283 283 285 284 284 283 282 282 283 283 284 284 283 283 283 282 282 281 280 279 279 278 278 277 276 277 276 277
282 279 278 278 278 279 280 280 280 279 279 279 280 280 281 282 282 283 283 283 283 282 281 280 280 280 279 280 280 281 281 281 280 279 276 273 274 275 275 277 276 276 275
281 281 280 278 277 277 278 279 280 281 281 279 280 281 280 280 282 283 283 281 281 281 280 279 277 277 276 276 276 276 276 277 276 276 276 276 276 276 276 276 275 275 273
279 279 280 280 277 276 276 276 281 281 282 283 283 281 282 283 283 283 283 282 281 280 277 275 275 274 274 274 274 274 275 275 275 276 275 275 275 275 275 275 275 273 272
278 279 278 279 279 277 275 275 272 276 281 281 282 282 283 282 282 281 281 280 279 278 274 273 272 273 273 273 274 273 273 273 274 274 273 273 274 273 273 272 273 273 271
275 277 276 276 274 275 273 272 272 272 271 272 277 279 280 280 279 279 278 277 273 274 273 272 272 272 272 272 272 272 272 272 272 272 271 270 271 272 271 271 270 270 271
275 275 274 274 275 275 272 271 270 270 270 270 272 274 274 277 276 276 275 271 270 270 271 270 271 271 271 270 269 269 269 268 268 267 268 268 267 270 268 268 268 267 268
274 272 272 272 272 274 270 269 270 269 269 270 270 270 271 270 268 268 268 268 267 267 268 268 268 268 267 267 265 265 265 265 265 266 265 264 264 266 265 266 265 265 266
273 270 267 269 270 272 271 265 266 268 269 269 268 269 269 268 267 266 266 265 266 266 265 265 265 264 265 264 264 262 261 260 262 262 263 264 261 263 264 264 264 265 266
268 267 268 270 267 267 270 270 266 264 268 268 267 267 267 266 266 264 263 262 262 263 262 263 264 263 261 261 260 258 257 257 257 257 258 260 261 262 262 260 259 258 262
268 268 268 268 268 264 264 268 267 266 265 262 263 264 264 262 262 263 260 255 260 259 259 260 260 260 259 257 258 257 256 254 254 253 254 255 258 258 255 257 258 258 257
265 265 268 268 268 266 262 260 263 266 264 260 259 260 259 257 257 257 254 253 256 253 252 255 259 259 257 253 254 256 257 252 253 252 251 252 255 258 255 257 257 254 255
261 261 262 263 264 264 264 263 257 256 261 262 261 263 263 260 259 254 254 256 256 256 256 256 257 257 255 254 254 255 253 252 250 251 252 254 253 253 254 255 252 255 254
263 261 259 258 258 258 260 261 261 260 260 259 258 257 259 259 258 254 256 256 258 258 257 255 257 257 256 256 256 254 252 253 251 251 248 253 252 252 252 252 253 253 255

GFSGL_sfc_thetae_117.txt.gz
Theta_e
297 300 304 308 323 327 325 324 324 323 323 322 324 323 321 319 319 317 317 317 316 317 318 317 316 317 316 316 316 315 314 312 309 310 313 314 314 316 316 318 316 316 317
296 298 300 303 308 325 324 323 322 321 322 322 323 323 322 321 319 318 316 317 316 316 317 317 316 317 316 316 316 315 314 313 312 309 310 311 312 316 317 315 316 317 316
294 295 297 298 301 305 320 322 322 321 321 322 323 322 321 321 319 318 318 317 317 318 318 317 317 317 316 316 316 315 315 314 313 312 311 312 313 313 312 314 314 316 317
292 293 293 295 297 298 305 320 321 321 321 321 322 322 321 320 320 319 319 318 318 318 319 318 318 317 316 316 316 316 315 314 314 312 312 311 311 313 313 312 311 313 311
290 291 291 293 295 295 297 300 314 320 320 320 320 320 320 320 320 319 319 318 317 317 317 318 318 315 308 312 316 316 315 314 314 313 312 309 310 308 310 312 312 312 309
287 287 290 291 292 292 293 293 293 296 311 318 318 318 316 303 292 299 313 318 317 316 315 316 317 306 306 300 301 301 310 314 311 310 310 309 309 310 310 310 310 307 302
285 286 287 289 290 290 291 291 290 289 290 292 296 299 295 292 290 292 297 317 316 316 315 314 314 311 306 309 291 291 290 289 290 310 310 310 309 309 308 306 306 305 301
283 284 285 286 287 288 289 288 289 289 287 287 288 290 290 289 291 292 291 306 299 295 295 297 306 302 296 303 299 293 289 288 289 291 293 289 289 291 296 301 302 291 288
281 281 283 284 284 285 285 286 287 287 286 285 286 286 287 287 289 289 293 292 289 287 287 288 291 293 289 293 296 288 284 284 287 287 286 286 286 287 289 294 289 290 285
281 281 282 282 283 283 284 284 285 285 285 286 285 285 285 285 288 288 288 287 285 285 285 285 286 288 288 290 292 288 284 282 282 282 282 282 283 283 283 284 286 287 285
281 280 280 281 281 282 283 283 283 283 284 284 284 284 284 284 285 288 288 286 285 283 283 283 284 286 287 287 287 285 282 283 282 281 280 280 280 279 280 281 282 285 285
280 278 278 278 280 281 281 282 282 282 282 282 282 282 283 283 285 285 285 285 285 283 282 283 284 285 285 285 284 284 284 283 282 280 278 277 277 277 277 278 278 278 278
282 279 278 278 279 279 279 279 280 281 281 281 281 281 281 283 283 284 284 283 282 281 281 282 282 283 283 282 283 283 282 282 281 280 277 276 276 277 278 278 278 278 278
280 281 279 277 277 279 280 280 280 280 279 280 280 280 281 282 282 282 282 281 282 280 279 279 279 279 279 279 279 279 279 280 278 277 276 277 277 277 276 277 276 275 275
279 279 280 278 276 276 277 279 279 281 282 279 279 280 280 279 281 283 282 280 279 279 278 278 277 276 276 276 276 276 277 277 276 277 276 276 276 276 275 276 275 274 272
278 278 278 278 276 276 275 274 279 280 281 282 283 280 281 282 282 282 281 281 280 279 275 274 273 274 273 274 274 274 274 275 275 276 275 275 275 275 275 275 275 273 271
276 277 277 276 276 275 274 273 271 274 278 279 280 280 280 280 280 280 279 279 278 277 273 272 272 272 273 273 273 273 272 273 274 274 274 274 274 274 273 273 273 272 271
273 273 272 273 271 270 269 267 267 267 267 270 275 276 278 278 278 278 277 275 272 272 271 270 270 271 271 271 271 271 270 271 271 271 271 271 272 272 271 271 271 271 271
273 272 270 269 271 268 267 267 266 266 266 268 270 271 271 275 274 274 273 269 268 268 269 269 269 269 269 268 267 267 267 267 267 267 268 268 268 270 269 269 269 268 269
272 270 268 269 270 268 266 265 266 267 267 267 268 268 269 268 266 265 266 266 266 266 266 267 267 266 265 265 264 264 264 264 265 266 265 264 265 267 266 266 266 266 266
266 266 266 267 266 269 265 263 263 265 266 266 266 267 267 266 264 264 264 264 264 264 264 264 263 262 263 263 262 261 260 260 262 262 263 264 262 264 266 265 265 266 266
267 266 267 266 264 263 266 267 265 262 263 263 263 265 264 264 263 262 261 259 259 262 262 262 261 261 260 259 259 256 256 255 256 257 259 261 262 262 263 262 261 260 263
264 264 266 267 266 262 262 264 263 260 260 258 261 261 260 257 258 259 257 255 259 258 259 260 259 258 257 255 256 256 256 254 254 254 253 255 259 260 257 258 258 258 257
262 261 265 266 265 265 261 258 260 262 262 258 255 256 256 254 252 253 252 252 253 252 252 255 257 257 257 252 253 255 257 252 253 253 250 251 255 257 255 256 255 252 253
258 257 257 258 258 261 260 259 257 258 260 259 258 259 259 255 255 252 254 254 254 253 256 255 256 255 254 255 255 255 254 254 252 253 252 253 254 253 253 254 252 255 253
261 258 256 255 254 254 257 258 259 258 255 255 254 254 257 258 256 252 253 256 255 255 255 254 254 254 254 255 255 254 253 254 252 251 250 254 253 252 251 251 252 252 254

GFSGL_sfc_thetae_120.txt.gz
Theta_e
295 296 298 300 302 306 319 325 325 322 323 323 324 324 324 322 321 321 320 318 317 316 317 318 317 318 316 316 316 316 315 314 309 311 316 317 316 316 316 317 317 317 315
294 295 296 297 299 301 304 311 323 322 322 321 322 324 323 321 321 319 317 317 316 315 317 317 317 317 316 317 316 315 314 313 311 309 311 312 314 316 317 315 316 317 318
291 292 293 294 295 297 299 303 314 322 322 322 323 323 322 321 319 319 318 317 316 315 316 316 317 316 315 316 316 315 315 314 313 311 310 312 313 314 313 314 315 316 316
290 289 290 292 293 294 296 297 299 304 320 321 322 323 322 321 320 319 318 316 315 316 317 317 318 317 316 316 315 315 315 314 313 312 312 310 311 312 313 313 312 313 307
288 288 288 290 292 292 294 295 295 295 297 300 320 321 322 321 320 319 318 317 317 316 317 318 318 316 308 312 316 316 315 314 313 312 311 312 311 310 311 313 312 313 308
285 286 288 289 289 290 290 292 292 293 293 293 294 300 308 299 294 299 312 317 317 317 316 317 318 307 306 301 301 303 311 315 313 312 311 310 311 312 312 312 312 307 300
283 284 285 286 287 288 288 289 289 289 290 290 290 290 290 291 290 297 297 318 317 317 316 316 315 314 307 312 293 291 290 290 292 313 311 311 309 310 310 308 309 307 302
281 282 283 284 284 286 286 286 287 288 287 287 288 288 288 289 289 291 294 307 301 294 293 297 311 309 307 302 299 294 289 289 291 293 295 292 293 294 302 305 307 292 289
279 279 281 282 282 283 283 284 285 285 285 285 285 286 286 286 288 288 290 290 287 286 287 288 288 295 290 296 297 289 285 284 287 288 287 287 287 287 290 297 292 292 286
277 278 279 280 281 281 282 282 284 285 284 284 283 284 284 284 286 288 288 286 285 285 285 285 286 288 289 290 295 290 285 283 283 282 282 282 282 283 283 285 287 289 285
280 278 278 280 280 280 282 283 283 283 283 283 283 283 283 284 284 285 286 286 284 284 284 284 285 286 286 287 287 287 284 283 281 281 281 280 280 279 279 280 280 285 286
280 279 278 278 280 280 280 281 281 281 282 281 282 282 283 283 284 284 284 283 283 281 280 282 283 285 285 285 284 284 284 283 281 280 279 278 277 277 278 278 279 279 279
280 279 278 278 278 280 279 280 280 280 279 279 280 280 281 282 282 283 283 283 282 279 280 281 281 281 281 281 282 282 282 282 279 277 276 276 276 278 279 279 279 279 278
279 279 279 277 277 277 278 279 278 279 279 278 278 278 279 280 280 281 281 280 280 279 279 279 279 279 278 278 278 278 278 279 278 276 276 277 277 277 276 277 276 277 276
278 278 278 278 276 276 276 277 277 278 279 278 277 278 277 277 279 281 280 279 278 278 278 277 276 276 275 276 276 276 277 277 276 277 277 276 276 276 276 277 276 276 274
276 276 276 276 275 275 274 274 278 279 279 279 280 278 278 280 280 280 280 280 279 278 275 273 273 273 273 273 273 273 274 275 276 276 275 276 275 275 274 275 275 274 272
274 275 275 275 274 272 271 270 267 272 276 277 277 278 278 278 278 278 278 277 277 274 271 271 270 271 272 272 272 272 271 273 274 274 274 274 274 274 274 273 273 273 272
270 270 269 270 268 266 264 264 265 266 265 266 272 274 276 276 276 276 275 273 269 270 269 268 268 269 269 269 269 270 270 271 271 272 272 272 273 273 272 272 272 272 272
271 270 268 266 266 265 265 265 265 266 266 267 268 269 269 273 273 272 271 266 266 266 267 267 266 267 267 267 266 266 266 267 267 268 269 270 270 271 270 270 269 270 271
267 268 266 266 266 265 264 264 264 264 264 264 264 265 266 265 263 263 264 264 264 265 265 265 265 265 263 264 263 264 264 265 265 266 265 265 267 268 268 268 268 268 268
264 265 264 265 264 265 263 262 262 261 261 262 260 259 262 262 261 261 262 262 262 262 262 263 262 261 263 262 262 262 261 261 263 264 265 265 265 266 267 267 267 267 267
263 264 265 263 263 263 265 267 263 259 260 260 258 262 259 259 260 260 259 257 258 261 261 260 260 259 259 259 259 258 258 258 259 260 262 263 265 265 265 264 264 265 266
262 261 263 264 264 262 261 263 261 258 257 256 258 259 259 254 253 256 255 252 257 256 258 258 258 258 257 256 257 258 257 256 257 257 259 262 263 263 263 263 263 263 262
260 258 262 261 261 262 258 257 257 260 260 256 253 254 253 252 250 251 251 252 253 252 252 254 257 257 258 256 256 258 258 256 257 257 255 259 261 261 261 261 261 259 259
256 256 256 257 255 255 257 259 255 253 254 254 255 258 260 254 255 250 251 252 253 253 256 256 255 255 255 254 255 256 254 253 253 253 256 257 257 257 258 259 258 259 258
260 258 256 255 255 253 251 251 254 255 254 253 253 255 256 258 258 251 251 255 254 253 254 253 255 254 255 256 256 255 253 253 253 251 252 257 257 257 257 257 256 258 258

GFSGL_sfc_thetae_126.txt.gz
Theta_e
295 295 297 298 300 300 300 300 301 304 309 317 330 331 331 330 330 331 330 330 328 329 327 327 326 327 326 327 324 324 323 320 318 323 324 325 323 320 318 322 321 322 319
294 294 294 294 295 295 296 297 298 300 302 305 310 329 328 328 331 329 328 327 326 324 324 324 324 325 326 325 323 323 324 322 322 315 320 318 319 320 319 318 319 321 321
293 292 292 292 293 293 293 294 295 296 297 299 300 300 306 322 325 326 326 326 325 324 324 323 323 324 322 322 322 323 322 321 323 321 317 317 318 319 317 318 318 318 319
291 292 291 291 291 292 293 293 292 293 292 293 295 295 296 295 294 295 301 318 323 323 323 324 323 323 322 321 321 324 322 322 321 320 316 313 315 317 317 315 313 316 315
289 290 292 293 291 291 292 293 293 292 291 291 291 291 291 292 290 291 295 302 315 322 321 322 323 321 312 316 321 323 323 321 318 316 312 313 312 311 312 315 313 314 315
287 288 290 292 294 292 291 291 292 292 291 291 289 289 288 289 288 289 291 303 307 318 319 319 321 310 309 303 301 305 317 321 317 315 314 312 312 313 314 313 314 311 304
286 286 287 290 290 292 293 292 291 289 290 289 289 289 287 287 287 288 290 294 292 292 291 293 306 318 309 318 302 298 300 300 302 318 317 317 315 318 315 312 312 312 311
284 284 285 287 287 289 289 289 290 290 289 288 288 287 288 286 286 286 288 291 289 289 288 287 289 292 291 292 316 311 309 300 300 302 311 318 319 323 318 319 314 307 292
282 282 283 284 285 285 285 286 288 288 287 288 287 286 286 286 285 285 286 287 286 286 285 286 285 286 287 289 299 305 294 287 289 289 289 288 288 288 294 310 298 297 290
283 283 283 284 284 283 284 285 286 287 287 287 286 286 284 284 285 285 286 284 282 282 283 283 284 284 285 286 293 296 294 288 285 285 285 285 285 285 284 287 298 300 290
284 284 284 284 284 284 284 285 285 285 285 285 285 285 284 284 284 284 284 284 284 283 281 281 282 283 284 284 285 285 285 285 283 284 282 281 282 281 281 282 283 287 288
284 284 284 284 283 283 283 284 285 285 285 284 284 285 286 285 283 283 283 283 283 283 282 283 282 283 282 282 281 282 283 284 283 282 279 279 279 279 280 281 281 281 282
284 283 284 284 285 285 283 282 282 283 283 283 283 282 283 285 285 282 282 282 282 283 283 282 282 282 282 281 282 281 280 279 279 277 276 276 278 279 281 281 281 281 280
282 282 283 283 283 284 283 281 279 279 279 279 279 279 281 282 282 283 283 284 283 283 283 284 282 282 282 281 281 282 282 280 278 277 277 278 279 279 278 280 280 280 278
281 281 281 282 282 282 282 281 279 278 278 277 277 278 277 277 278 280 279 280 281 281 284 284 283 282 281 282 281 281 281 281 280 280 280 279 278 279 279 281 281 279 277
279 280 280 281 281 281 281 281 278 277 277 276 276 277 278 277 277 278 278 278 279 280 281 279 279 279 279 280 278 278 279 278 279 279 279 279 278 279 279 280 281 280 279
278 278 279 279 279 279 279 279 278 280 278 277 275 275 275 275 276 276 277 278 278 279 279 278 277 277 278 278 279 279 277 278 279 279 278 278 278 278 278 278 279 279 278
277 276 278 279 279 278 278 278 278 277 276 277 277 275 274 274 274 274 276 278 278 277 277 276 276 277 277 277 277 277 277 278 278 278 278 278 278 278 277 277 277 277 276
277 276 277 278 278 277 278 278 277 276 276 275 276 274 274 274 274 274 274 275 274 274 274 274 274 274 275 276 275 277 277 277 278 278 278 278 278 277 276 275 275 275 275
276 274 274 277 277 277 277 276 276 275 275 274 274 272 272 274 273 272 273 272 272 272 272 272 272 272 272 273 274 275 276 276 277 277 277 277 278 278 277 277 277 276 276
276 275 273 276 276 275 275 275 275 274 274 273 273 271 268 272 271 271 271 271 270 270 270 271 271 270 271 272 272 273 273 273 274 275 276 276 276 276 276 276 276 276 276
274 274 274 274 274 274 273 274 274 274 273 272 272 272 270 272 271 271 270 269 270 270 270 270 270 269 268 268 269 270 271 270 271 272 274 274 275 275 275 275 275 275 275
273 273 273 273 273 272 273 273 273 272 272 272 271 271 271 270 270 270 269 269 269 269 269 269 268 267 268 268 269 269 268 268 269 269 271 273 274 274 275 274 273 273 272
273 272 272 272 272 271 271 271 271 270 270 271 270 270 270 270 269 269 269 269 269 269 268 268 267 265 265 265 267 267 266 266 268 269 270 272 272 272 273 272 272 271 271
272 272 271 271 270 270 270 270 270 270 270 270 270 269 269 269 269 269 269 268 267 268 267 267 266 266 265 264 263 263 262 262 264 263 270 270 269 269 270 271 271 270 270
272 271 271 271 270 270 270 269 269 269 269 269 269 269 269 268 269 268 268 268 267 267 267 267 266 265 264 266 263 261 261 261 262 263 267 270 269 270 270 269 266 271 268

GFSGL_sfc_thetae_132.txt.gz
Theta_e
295 297 296 296 296 296 296 296 296 296 296 297 297 297 298 298 298 301 305 320 327 329 330 330 329 329 328 328 328 328 325 324 318 321 323 322 322 322 322 322 323 324 319
294 295 294 294 295 294 295 294 295 294 294 294 293 293 293 293 294 295 297 300 305 311 327 327 328 329 329 328 326 325 325 325 323 319 321 318 319 321 325 321 322 323 324
291 292 294 293 293 292 293 293 293 293 293 291 291 291 290 290 291 294 297 300 302 306 308 304 320 326 325 325 325 325 326 326 324 322 320 320 320 320 320 318 319 321 322
289 289 290 291 292 292 292 291 292 292 291 291 290 289 289 289 289 291 295 294 294 295 296 297 299 296 293 302 320 323 324 323 322 321 320 319 318 318 319 317 314 318 317
286 287 288 289 290 291 291 291 291 290 290 290 290 287 287 287 287 289 292 291 291 291 291 292 296 293 292 291 294 295 310 321 321 319 318 317 316 314 315 316 314 314 316
285 285 287 288 288 289 289 289 289 288 288 287 287 287 285 286 286 288 289 289 288 287 287 287 290 289 288 288 290 291 292 298 312 317 317 315 316 316 315 314 313 311 308
284 285 285 286 286 286 287 287 287 287 287 286 285 286 284 284 286 287 289 290 287 286 284 284 285 286 286 287 288 292 295 295 292 303 313 317 317 318 316 313 313 313 311
284 284 284 285 285 286 286 286 286 286 286 285 285 284 284 284 285 285 286 287 287 286 285 284 284 284 284 285 287 289 292 290 289 290 290 293 297 312 316 316 315 313 296
283 284 284 284 283 284 283 284 286 285 285 285 285 283 282 282 283 284 284 283 284 284 284 284 284 283 285 285 284 283 285 287 289 289 288 288 287 287 287 305 310 301 288
284 284 285 284 283 282 283 282 284 284 283 284 283 283 283 281 283 283 283 282 281 282 283 283 284 284 284 284 282 281 279 280 283 285 286 286 286 285 284 285 285 304 296
285 285 285 285 284 283 282 282 282 282 281 280 280 281 280 279 279 282 282 280 280 281 282 282 283 284 284 284 283 282 281 281 280 281 281 281 283 283 283 283 284 284 286
284 284 283 285 285 284 281 280 279 279 278 277 277 278 279 278 279 280 281 281 281 280 281 283 283 284 285 284 282 283 283 282 281 280 279 278 279 280 281 282 282 282 284
283 282 283 282 284 283 282 279 277 277 276 275 275 274 275 276 276 278 279 281 281 280 281 283 283 284 283 282 283 283 281 281 280 279 279 279 280 281 282 282 282 282 282
281 281 282 281 282 282 281 281 277 276 275 274 273 272 273 273 274 275 276 278 280 279 281 281 281 281 280 279 280 280 279 279 279 279 278 280 282 281 281 281 279 280 278
280 281 280 281 280 280 280 279 279 276 276 274 273 273 272 272 274 277 276 277 278 277 279 278 277 277 277 277 277 278 279 278 278 279 279 279 279 280 280 281 280 278 276
278 278 279 280 280 279 279 279 280 279 279 278 278 275 274 276 278 278 277 278 279 278 275 273 273 273 273 274 274 276 277 277 278 279 278 278 278 278 278 280 280 279 278
277 276 278 279 279 278 278 277 276 279 281 281 278 277 276 276 277 277 277 276 277 275 272 272 271 271 271 272 273 273 274 276 278 278 278 277 277 277 276 277 278 277 276
278 275 276 278 278 277 277 277 277 275 274 275 278 277 276 275 277 277 276 274 270 272 270 270 269 269 270 271 272 272 273 274 275 277 276 277 278 276 276 275 276 275 275
278 276 276 277 277 276 277 276 276 275 274 274 274 274 272 274 275 275 275 269 268 268 269 269 270 269 268 269 269 271 272 272 272 272 275 275 276 277 276 276 276 275 275
277 275 274 276 276 276 275 274 274 274 273 273 273 271 271 270 270 270 270 268 268 268 268 268 268 269 268 267 267 268 269 270 270 270 270 274 275 275 275 275 275 275 274
276 276 272 276 275 275 274 273 273 273 272 272 271 271 270 269 270 269 269 268 267 268 267 267 267 266 266 266 267 266 267 267 267 268 269 270 273 274 274 274 274 274 275
276 275 275 274 274 273 272 273 272 272 271 271 271 271 268 270 270 269 269 266 265 267 269 266 266 266 265 264 265 264 264 263 264 265 266 267 271 272 274 273 272 272 272
275 274 274 274 273 272 272 272 271 271 271 270 270 270 270 269 268 269 269 268 266 265 268 266 263 265 264 262 264 263 262 261 262 264 263 263 269 269 271 271 271 269 269
274 274 273 273 272 271 271 270 271 269 270 270 269 269 269 269 268 267 268 269 265 264 266 265 266 263 262 262 260 260 261 261 261 262 261 264 267 269 268 269 270 269 269
274 273 273 272 271 271 271 271 270 270 270 269 269 269 269 269 268 267 268 268 267 266 262 265 267 265 262 262 259 258 256 258 259 260 261 263 267 267 266 266 266 267 265
273 273 273 272 272 272 271 270 270 270 269 269 269 268 269 269 268 268 267 264 265 262 263 265 265 265 264 263 260 258 256 257 257 258 259 265 266 264 265 266 265 267 266

GFSGL_sfc_thetae_135.txt.gz
Theta_e
286 289 291 294 295 295 294 293 293 293 293 293 293 293 294 295 299 301 302 304 306 308 308 306 316 323 328 327 327 326 325 323 318 320 321 323 320 323 324 324 322 321 318
285 287 288 293 291 291 291 292 292 291 291 291 291 290 291 292 296 297 297 297 297 297 298 301 299 300 298 305 320 324 324 325 322 318 320 320 320 321 323 322 322 323 322
286 286 287 289 290 289 289 289 290 290 288 288 288 288 289 290 291 293 293 293 293 293 293 296 294 293 292 293 297 300 313 322 321 318 316 322 321 320 317 318 320 321 321
285 286 285 287 288 288 288 288 288 288 288 286 286 287 287 287 290 291 290 290 290 290 290 292 291 289 289 290 292 295 297 300 316 320 321 322 319 320 321 318 318 320 319
284 285 285 287 288 287 287 287 287 286 286 286 284 285 285 286 288 289 289 288 287 287 287 287 289 288 288 288 289 290 293 296 301 305 316 319 319 313 317 319 318 318 318
283 284 285 286 286 287 287 286 286 285 285 285 283 283 283 284 286 287 288 287 287 285 285 285 287 287 286 287 288 288 291 290 292 297 303 306 313 317 317 317 316 314 310
284 283 283 284 284 285 285 285 285 284 283 282 282 282 281 283 284 285 286 286 285 284 284 284 284 285 285 285 286 287 288 288 285 289 289 292 291 292 290 308 316 315 313
283 283 283 283 282 283 283 283 283 283 283 281 280 279 280 282 284 283 284 284 284 284 284 284 283 284 284 284 284 284 284 285 285 287 288 288 288 288 290 293 294 315 303
282 283 282 281 280 280 280 281 281 280 280 280 279 278 277 279 283 283 281 281 281 282 284 283 283 283 284 285 282 282 282 282 284 285 286 286 286 287 287 290 293 298 292
282 282 283 282 280 279 278 279 280 279 278 279 278 277 278 276 281 282 281 280 279 280 282 282 284 284 284 284 281 281 279 280 280 280 280 282 284 284 284 284 285 285 288
283 282 283 282 280 279 278 278 277 277 276 275 274 275 274 275 276 280 281 278 278 278 279 280 281 283 283 283 283 280 280 280 280 279 279 280 280 282 283 283 283 283 284
281 281 280 281 282 280 277 277 276 275 273 272 272 272 273 273 278 278 279 280 280 275 277 280 280 282 282 281 281 281 281 280 279 278 278 278 279 280 281 282 283 282 282
280 279 280 280 280 280 278 276 275 274 273 272 272 271 271 273 274 278 278 279 279 275 278 279 279 279 279 278 279 280 277 277 278 277 276 277 278 280 280 281 282 282 282
278 278 279 278 278 278 278 276 274 272 272 272 271 270 270 272 273 275 275 275 277 275 274 274 272 275 273 273 274 275 276 276 276 277 276 276 277 277 278 280 279 279 278
277 277 278 278 277 277 277 275 275 270 274 271 267 267 268 269 274 277 276 274 275 274 272 271 270 270 270 271 271 272 274 274 274 276 276 275 275 275 275 278 278 277 275
275 275 276 276 276 276 276 276 280 278 279 278 278 274 268 276 278 278 277 275 276 274 269 268 267 267 267 268 269 270 271 272 273 274 275 275 275 275 275 276 277 276 274
274 274 275 276 276 275 275 274 270 273 278 279 279 277 276 276 277 277 276 274 273 272 267 267 267 265 266 267 267 268 269 270 272 271 273 274 275 276 276 275 275 275 274
271 271 269 268 266 268 266 269 267 265 265 266 273 275 275 275 275 275 274 271 267 268 267 266 266 267 266 266 266 267 267 269 269 269 269 270 274 275 275 274 275 273 274
273 268 267 267 267 268 269 268 268 266 264 264 265 267 267 274 274 274 273 262 261 265 266 266 266 266 265 265 265 265 265 266 266 267 267 268 269 274 273 274 274 274 274
272 270 269 269 268 267 266 265 267 265 265 264 264 262 264 265 260 258 257 256 257 261 264 265 265 265 262 262 263 263 263 263 262 264 265 266 266 271 273 273 273 272 274
267 267 268 269 266 265 264 265 266 263 262 262 261 259 263 262 260 260 261 263 260 260 260 263 260 261 259 259 263 261 261 259 260 260 262 263 264 268 270 272 271 271 271
266 267 267 266 266 264 264 265 263 262 262 262 261 264 263 260 261 261 261 262 261 260 260 259 259 260 259 258 259 253 258 257 258 258 260 261 263 267 269 271 271 270 270
265 266 266 267 266 264 262 263 262 260 261 260 262 263 262 259 258 260 259 260 264 259 259 260 256 261 259 255 255 256 255 256 258 258 258 259 261 264 267 268 269 268 268
266 265 267 265 263 263 260 259 259 262 262 260 257 258 259 258 257 257 257 257 257 258 257 255 259 264 262 255 254 255 257 254 256 257 258 259 261 265 265 266 267 267 267
263 262 262 263 262 260 258 259 259 258 258 258 258 258 260 258 260 258 256 258 257 256 256 256 258 261 261 258 257 257 253 255 253 253 257 259 263 262 264 265 265 266 264
266 267 265 262 262 260 259 258 260 260 262 263 262 261 261 261 261 257 259 258 258 259 256 256 257 257 260 260 260 256 253 254 254 255 257 257 260 260 262 262 263 265 264

GFSGL_sfc_thetae_141.txt.gz
Theta_e
285 286 286 286 286 286 286 285 286 287 290 293 293 293 293 294 294 293 294 294 293 292 293 292 293 295 295 297 299 301 304 307 312 319 321 321 319 319 321 321 322 323 323
284 285 285 285 285 284 283 284 285 285 288 290 292 291 291 291 290 290 289 289 289 288 289 289 288 291 290 292 294 294 297 301 304 306 312 317 318 319 320 321 323 324 323
284 284 284 284 284 282 282 282 283 284 284 285 287 288 288 287 287 288 287 287 286 286 286 286 285 287 287 288 289 292 291 294 296 299 303 308 313 316 313 320 321 321 322
283 283 282 282 283 283 282 281 281 282 283 283 283 285 286 286 286 286 285 285 285 285 286 285 285 285 285 286 286 286 287 288 289 291 295 295 297 296 299 295 294 302 307
281 281 281 282 282 282 281 280 280 279 280 282 282 282 283 284 285 284 284 284 284 284 284 285 285 286 286 286 285 284 284 284 285 287 287 288 289 288 287 289 289 293 298
280 279 280 280 280 280 280 279 278 278 278 279 280 281 281 282 285 285 284 282 283 282 282 283 283 284 284 284 285 285 284 281 281 282 283 282 283 284 285 285 286 287 289
279 279 279 279 278 278 278 278 277 276 277 277 277 279 280 280 283 283 283 281 280 281 281 281 281 282 282 281 282 283 282 283 281 282 279 280 281 282 283 283 284 284 286
279 278 278 278 277 277 276 275 275 275 275 275 276 277 279 280 281 281 280 280 280 278 279 280 279 279 281 280 280 280 280 280 281 281 281 281 282 282 283 283 283 283 284
278 278 278 277 276 276 275 275 274 274 274 274 275 276 275 279 281 279 278 277 278 276 276 278 278 278 280 281 278 278 278 278 281 282 282 282 282 282 283 281 280 279 279
279 278 278 278 276 275 275 274 275 274 274 274 274 274 277 274 280 280 277 275 273 273 273 274 278 277 279 279 276 276 274 275 277 278 277 276 277 277 279 279 279 277 277
280 280 280 278 276 275 275 275 274 273 273 271 272 273 273 275 275 279 278 273 272 270 270 270 272 277 277 277 276 275 274 274 274 276 276 272 274 275 275 276 279 278 277
279 279 278 278 278 276 273 274 274 273 271 271 271 271 273 272 276 277 277 276 273 269 268 269 270 274 274 274 273 274 274 271 270 269 272 273 273 273 274 274 274 276 275
278 277 277 278 278 277 275 273 272 272 271 271 271 270 271 273 272 275 275 274 273 268 270 271 272 271 271 269 271 271 269 268 267 267 267 269 271 273 273 273 275 274 274
277 277 276 276 276 276 276 275 271 269 271 271 270 268 266 270 273 271 270 269 271 268 266 264 264 268 263 262 265 266 265 266 265 265 266 267 268 269 271 273 274 273 272
277 276 276 276 275 274 275 274 276 271 274 271 265 263 264 265 272 274 272 270 267 267 263 262 263 263 262 262 262 263 263 264 263 263 264 265 266 267 267 271 273 273 272
275 275 275 274 274 274 273 272 277 276 277 277 276 272 267 275 276 275 274 273 272 270 260 260 260 259 259 260 260 261 262 262 262 262 262 264 264 265 265 268 272 271 270
274 274 274 274 273 271 270 270 265 269 275 275 275 275 275 275 275 274 273 272 271 269 262 258 255 257 259 262 261 261 260 261 261 260 260 262 263 264 264 266 269 270 269
271 269 267 265 264 263 261 262 262 260 259 261 269 273 274 274 273 273 272 269 263 264 262 259 257 261 262 262 262 261 260 260 259 259 258 259 260 261 262 264 266 267 268
273 269 266 265 265 264 263 263 262 261 260 259 262 265 264 271 272 272 270 258 256 259 262 263 260 261 261 262 257 255 254 256 256 254 257 257 258 260 260 262 264 266 267
271 269 268 268 266 265 262 262 262 261 260 258 258 259 261 262 257 253 253 253 253 258 259 262 263 262 259 259 255 250 253 253 257 257 256 255 257 258 259 261 262 265 266
267 267 266 267 264 262 261 261 261 259 259 258 258 255 258 259 258 257 259 257 258 260 258 259 259 257 258 258 259 255 253 250 254 255 255 256 256 257 260 261 263 265 266
266 266 266 264 263 261 261 262 260 259 259 259 260 262 260 256 259 260 261 259 258 259 259 257 258 259 259 260 259 253 255 251 252 253 254 254 256 258 259 260 262 263 264
264 265 265 264 263 261 259 260 259 257 259 259 261 261 261 260 260 261 260 259 259 259 259 257 252 258 259 256 256 258 255 256 256 252 251 253 256 257 258 260 261 261 263
264 262 263 262 259 261 257 257 258 259 260 258 256 259 259 259 259 260 262 260 258 257 255 253 255 258 258 255 255 255 257 258 254 253 250 254 256 258 257 258 260 261 261
260 258 258 261 260 258 256 259 259 261 258 257 258 257 260 259 261 260 260 262 263 259 257 256 256 257 256 256 257 257 255 255 251 251 251 256 256 253 254 256 258 260 259
264 265 264 262 258 257 258 256 258 259 258 260 258 255 256 260 261 261 262 262 263 262 262 259 259 258 257 257 258 258 256 254 250 251 247 252 252 253 253 254 255 258 260